Location: Asni�res
(49.1337°N, 2.3555°E)
Time: 04:13:37
(UTC+00:00)

Cosmos 1626 Rocket - Pass Details

Date: 31 May 2022
Orbit: 602 x 631 km, 82.5° (Epoch: 04 July)

Event Time Altitude Azimuth Distance (km) Brightness Sun altitude
Rises 01:58:18 0° 143° (SE) 2,883 6.8 -13.3°
Reaches altitude 10° 02:01:14 10° 122° (ESE) 1,978 6.1 -13.0°
Maximum altitude 02:03:55 16° 84° (E) 1,609 6.2 -12.8°
Drops below altitude 10° 02:06:36 10° 46° (NE) 1,977 7.5 -12.6°
Sets 02:09:31 0° 25° (NNE) 2,882 9.0 -12.3°
